Weather History for Edinburg, TX

Change the Weather History Date:

Saturday, October 13, 2012

  Actual Average (KMFE) Record (KMFE)
Temperature  
Mean Temperature 85 °F 78 °F  
Max Temperature 95 °F 88 °F 97 °F (1962)
Min Temperature 76 °F 68 °F 46 °F (1944)
Degree Days  
Heating Degree Days 0 0  
Month to date heating degree days 0  
Since 1 July heating degree days 0  
Cooling Degree Days 20 13  
Month to date cooling degree days 183  
Year to date cooling degree days 3982  
Growing Degree Days 35 (Base 50)    
Moisture  
Dew Point 72 °F    
Average Humidity 66    
Maximum Humidity 88    
Minimum Humidity 43    
Precipitation  
Precipitation 0.00 in 0.07 in 0.97 in (1958)
Month to date precipitation 0.98  
Year to date precipitation 19.02  
Sea Level Pressure  
Sea Level Pressure 29.99 in    
Wind  
Wind Speed 12 mph (SE)    
Max Wind Speed 25 mph    
Max Gust Speed 32 mph    
Visibility 7 miles    
Events      
T = Trace of Precipitation, MM = Missing Value Source: NWS Daily Summary

Daily Weather History Graph

Daily Weather History Graph

Search for Another Location

Airport:

Trip Planner

Search our weather history database for the weather conditions in past years. The results will help you decide how hot, cold, wet, or windy it might be!

Date:

Astronomy

Oct. 13, 2012 Rise Set
Actual Time 7:30 AM CDT 7:05 PM CDT
Civil Twilight 7:07 AM CDT 7:29 PM CDT
Nautical Twilight 6:40 AM CDT 7:55 PM CDT
Astronomical Twilight 6:13 AM CDT 8:22 PM CDT
Moon 5:31 AM CDT (10/13) 5:45 PM CDT (10/13)
Length of Visible Light 12h 21m
Length of Day
11h 34m
Waning Crescent, 5% of the Moon is Illuminated
Oct 13
Waning Crescent
Oct 15
New
Oct 21
First Quarter
Oct 29
Full
Nov 6
Last Quarter

Hourly Weather History & Observations

Time (CDT) Temp. Heat Index Dew Point Humidity Pressure Visibility Wind Dir Wind Speed Gust Speed Precip Events Conditions
1:35 AM 80.6 °F 85.5 °F 73.8 °F 80% 30.06 in 7.0 mi ESE 10.4 mph - N/A   Scattered Clouds
1:55 AM 80.1 °F 84.5 °F 73.9 °F 81% 30.06 in 7.0 mi ESE 12.7 mph 19.6 mph N/A   Scattered Clouds
2:15 AM 79.2 °F - 73.4 °F 82% 30.06 in 7.0 mi ESE 10.4 mph - N/A   Scattered Clouds
2:35 AM 78.8 °F - 72.9 °F 82% 30.06 in 10.0 mi ESE 10.4 mph - N/A   Scattered Clouds
2:55 AM 78.3 °F - 72.0 °F 81% 30.05 in 7.0 mi ESE 8.1 mph - N/A   Mostly Cloudy
3:35 AM 77.5 °F - 72.5 °F 84% 30.05 in 7.0 mi ESE 5.8 mph - N/A   Scattered Clouds
3:55 AM 77.9 °F - 73.0 °F 85% 30.04 in 7.0 mi ESE 5.8 mph - N/A   Scattered Clouds
4:15 AM 77.9 °F - 73.4 °F 86% 30.03 in 7.0 mi ESE 4.6 mph - N/A   Scattered Clouds
4:35 AM 77.9 °F - 73.6 °F 86% 30.03 in 5.0 mi SE 8.1 mph - N/A   Scattered Clouds
4:55 AM 78.3 °F - 73.4 °F 85% 30.03 in 7.0 mi SE 9.2 mph - N/A   Scattered Clouds
5:15 AM 78.1 °F - 73.4 °F 85% 30.04 in 7.0 mi SE 9.2 mph - N/A   Scattered Clouds
5:35 AM 78.3 °F - 73.4 °F 85% 30.03 in 7.0 mi SE 12.7 mph - N/A   Scattered Clouds
5:55 AM 78.1 °F - 73.4 °F 85% 30.03 in 7.0 mi SE 9.2 mph - N/A   Clear
6:15 AM 77.9 °F - 73.4 °F 86% 30.03 in 7.0 mi SE 10.4 mph - N/A   Clear
6:35 AM 77.5 °F - 73.4 °F 87% 30.03 in 7.0 mi SE 8.1 mph - N/A   Clear
6:55 AM 77.2 °F - 73.4 °F 88% 30.03 in 7.0 mi SE 6.9 mph - N/A   Clear
7:15 AM 77.0 °F - 72.9 °F 87% 30.03 in 7.0 mi SE 6.9 mph - N/A   Clear
7:35 AM 76.6 °F - 72.5 °F 87% 30.03 in 7.0 mi SE 4.6 mph - N/A   Clear
7:55 AM 77.0 °F - 72.5 °F 86% 30.03 in 7.0 mi SE 6.9 mph - N/A   Clear
8:15 AM 76.8 °F - 72.7 °F 87% 30.03 in 7.0 mi ESE 5.8 mph - N/A   Clear
8:35 AM 78.3 °F - 73.2 °F 84% 30.03 in 7.0 mi SE 4.6 mph - N/A   Clear
8:55 AM 79.9 °F - 73.4 °F 80% 30.03 in 7.0 mi SE 8.1 mph - N/A   Clear
9:35 AM 84.6 °F 91.7 °F 73.9 °F 70% 30.04 in 7.0 mi SSE 11.5 mph - N/A   Scattered Clouds
9:55 AM 85.5 °F 93.0 °F 73.8 °F 68% 30.04 in 7.0 mi SE 13.8 mph 17.3 mph N/A   Clear
10:15 AM 88.0 °F 95.6 °F 73.2 °F 61% 30.04 in 5.0 mi SSE 12.7 mph 20.7 mph N/A   Haze
10:35 AM 88.5 °F 95.8 °F 72.7 °F 59% 30.04 in 10.0 mi SSE 17.3 mph 23.0 mph N/A   Mostly Cloudy
10:55 AM 90.0 °F 97.4 °F 72.1 °F 56% 30.04 in 5.0 mi SSE 18.4 mph 24.2 mph N/A   Haze
11:15 AM 90.9 °F 97.3 °F 71.2 °F 52% 30.04 in 7.0 mi SSE 19.6 mph 24.2 mph N/A   Scattered Clouds
11:35 AM 90.5 °F 96.5 °F 70.9 °F 52% 30.03 in 7.0 mi South 16.1 mph 24.2 mph N/A   Mostly Cloudy
11:55 AM 92.3 °F 99.2 °F 71.2 °F 50% 30.02 in 7.0 mi South 18.4 mph 23.0 mph N/A   Mostly Cloudy
12:15 PM 93.2 °F 100.5 °F 71.6 °F 49% 30.02 in 7.0 mi SSE 17.3 mph 25.3 mph N/A   Mostly Cloudy
12:35 PM 93.6 °F 100.7 °F 70.9 °F 48% 30.00 in 5.0 mi SSE 19.6 mph 27.6 mph N/A   Haze
1:15 PM 93.7 °F 99.9 °F 70.0 °F 46% 29.98 in 7.0 mi SSE 18.4 mph 29.9 mph N/A   Scattered Clouds
1:35 PM 94.8 °F 100.9 °F 69.6 °F 44% 29.97 in 7.0 mi South 18.4 mph 28.8 mph N/A   Mostly Cloudy
1:55 PM 94.3 °F 99.8 °F 69.4 °F 44% 29.96 in 7.0 mi South 18.4 mph 29.9 mph N/A   Scattered Clouds
2:15 PM 93.4 °F 99.7 °F 70.3 °F 47% 29.95 in 7.0 mi SSE 18.4 mph 25.3 mph N/A   Mostly Cloudy
2:35 PM 94.3 °F 99.8 °F 69.6 °F 44% 29.93 in 7.0 mi SSE 20.7 mph 29.9 mph N/A   Mostly Cloudy
2:55 PM 93.6 °F 99.5 °F 69.8 °F 46% 29.92 in 7.0 mi SSE 19.6 mph 27.6 mph N/A   Mostly Cloudy
3:15 PM 93.6 °F 99.5 °F 69.8 °F 46% 29.92 in 7.0 mi SE 25.3 mph 32.2 mph N/A   Mostly Cloudy
3:35 PM 93.2 °F 99.4 °F 70.0 °F 47% 29.91 in 7.0 mi SSE 17.3 mph 32.2 mph N/A   Mostly Cloudy
3:55 PM 94.1 °F 98.9 °F 68.2 °F 43% 29.91 in 7.0 mi SSE 20.7 mph 28.8 mph N/A   Scattered Clouds
4:15 PM 93.9 °F 99.1 °F 69.3 °F 44% 29.90 in 5.0 mi SSE 20.7 mph 28.8 mph N/A   Haze
4:35 PM 92.5 °F 96.9 °F 68.4 °F 45% 29.90 in 7.0 mi SE 21.9 mph 27.6 mph N/A   Clear
4:55 PM 92.7 °F 96.7 °F 68.0 °F 44% 29.90 in 7.0 mi SE 21.9 mph 27.6 mph N/A   Clear
5:15 PM 92.3 °F 97.6 °F 69.4 °F 47% 29.89 in 7.0 mi SE 24.2 mph 29.9 mph N/A   Clear
5:35 PM 91.4 °F 95.8 °F 68.7 °F 47% 29.89 in 7.0 mi SSE 23.0 mph 28.8 mph N/A   Clear
5:55 PM 90.9 °F 95.3 °F 68.7 °F 48% 29.89 in 7.0 mi SSE 19.6 mph 26.5 mph N/A   Clear
6:15 PM 89.6 °F 93.0 °F 67.6 °F 48% 29.89 in 7.0 mi SSE 18.4 mph 27.6 mph N/A   Clear
6:35 PM 88.5 °F 92.3 °F 68.4 °F 51% 29.89 in 7.0 mi SSE 17.3 mph 26.5 mph N/A   Clear
7:15 PM 86.0 °F 90.4 °F 69.6 °F 58% 29.91 in 7.0 mi SE 17.3 mph 23.0 mph N/A   Clear
7:35 PM 85.3 °F 89.8 °F 70.0 °F 60% 29.91 in 10.0 mi SSE 15.0 mph 20.7 mph N/A   Clear
7:55 PM 84.6 °F 89.7 °F 71.1 °F 64% 29.91 in 7.0 mi SE 12.7 mph 19.6 mph N/A   Clear
8:15 PM 84.2 °F 89.6 °F 71.8 °F 66% 29.92 in 7.0 mi SSE 15.0 mph 20.7 mph N/A   Clear
9:15 PM 83.3 °F 89.0 °F 72.5 °F 70% 29.95 in 7.0 mi SSE 13.8 mph 23.0 mph N/A   Scattered Clouds
9:35 PM 82.8 °F 88.2 °F 72.5 °F 71% 29.95 in 7.0 mi SE 15.0 mph 21.9 mph N/A   Scattered Clouds
9:55 PM 82.4 °F 87.7 °F 72.5 °F 72% 29.95 in 7.0 mi SSE 13.8 mph - N/A   Clear
10:15 PM 82.4 °F 87.7 °F 72.5 °F 72% 29.95 in 7.0 mi SSE 16.1 mph 23.0 mph N/A   Clear
11:15 PM 81.9 °F 87.0 °F 72.7 °F 74% 29.97 in 7.0 mi SSE 15.0 mph - N/A   Clear
11:35 PM 81.9 °F 86.8 °F 72.5 °F 73% 29.97 in 7.0 mi SSE 10.4 mph - N/A   Clear
11:55 PM 81.7 °F 86.7 °F 72.5 °F 74% 29.97 in 7.0 mi SSE 11.5 mph 18.4 mph N/A   Clear